Location: Bottenau
(48.5138°N, 8.0462°E)
Time: 21:07:52
(UTC+00:00)

Cosmos 1844 Rocket - Pass Details

Date: 18 April 2021
Orbit: 824 x 844 km, 71.0° (Epoch: 18 May)

Event Time Altitude Azimuth Distance (km) Brightness Sun altitude
Exits shadow 23:39:36 42° 72° (ENE) 1,171 3.5 -30.2°
Drops below altitude 10° 23:43:42 10° 37° (NE) 2,437 5.8 -30.2°
Sets 23:46:12 0° 32° (NNE) 3,376 6.7 -30.2°
